Probability
0 0 0 0 0 0 0 1 1 1 0 0 0 0 0 0 0 0 0 0 0 0 0 0 0 0 0 0 0 0 0 0 0 0 0 0 0 0
0 0 0 0 0 0 0 0 0 0 0 0 0 0 0 0 0 0 0 0 0 0 0 0 0 0 0 0 0 0 0 0 0 0 0 0 0 0
0 0 0 0 0 0 0 0 0 0 0 0 0 0 0 0 0 0 0 0 0 0 0 0 0 0 0 0 0 0 0 0 0 0 0 0 0 0
0 0 0 0 0 0 0 0 0 0 0 0 0 0 0 0 0 0 0 0 0 0 0 0 0 0 0 0 0 0 0 0 0 0 0 0 0 0
0 0 0 0 0 0 0 0 0 0 0 0 0 0 0 0 0 0 0 0 0 0 0 0 0 0 0 0 0 0 0 0 0 0 0 0 0 0
0 0 0 0 0 0 0 0 0 0 0 0 0 0 0 0 0 0 0 0 0 0 0 0 0 0 0 0 0 0 0 0 0 0 0 0 0 0
0 0 0 0 0 0 0 0 0 0 0 0 0 0 0 0 0 0 0 0 0 0 0 0 0 0 0 0 0 0 0 0 0 0 0 0 0 0
0 0 0 0 0 0 0 0 0 0 0 0 0 0 0 0 0 0 0 0 0 0 0 0 0 0 0 0 0 0 0 0 0 0 0 0 0 0
0 0 0 0 0 0 0 0 0 0 0 0 0 0 0 0 0 0 0 0 0 0 0 0 0 0 0 0 0 0 0 0 0 0 0 0 0 0
0 0 0 0 0 0 0 0 0 0 0 0 0 0 0 0 0 0 0 0 0 0 0 0 0 0 0 0 0 0 0 0 0 0 0 0 0 0
0 0 0 0 0 0 0 0 0 0 0 0 0 0 0 0 0 0 0 0 0 0 0 0 0 0 0 0 0 0 0 0 0 0 0 0 0 0
0 0 0 0 0 0 0 0 0 0 0 0 0 0 0 0 0 0 0 0 0 0 0 0 0 0 0 0 0 0 0 0 0 0 0 0 0 0
0 0 0 0 0 0 0 0 0 0 0 0 0 0 0 0 0 0 0 0 0 0 0 0 0 0 0 0 0 0 0 0 0 0 0 0 0 0
0 0 0 0 0 0 0 0 0 0 0 0 0 0 0 0 0 0 0 0 0 0 0 0 0 0 0 0 0 0 0 0 0 0 0 0 0 0
0 0 0 0 0 0 0 0 0 0 0 0 0 0 0 0 0 0 0 0 0 0 0 0 0 0 0 0 0 0 0 0 0 0 0 0 0 0
0 0 0 0 0 0 0 0 0 0 0 0 0 0 0 0 0 0 0 0 0 0 0 0 0 0 0 0 0 0 0 0 0 0 0 0 0 0
0 0 0 0 0 0 0 0 0 0 0 0 0 0 0 0 0 0 0 0 0 0 0 0 0 0 0 0 0 0 0 0 0 0 0 0 0 0
0 0 0 0 0 0 0 0 0 0 0 0 0 0 0 0 0 0 0 0 0 0 0 0 0 0 0 0 0 0 0 0 0 0 0 0 0 0
0 0 0 0 0 0 0 0 0 0 0 0 0 0 0 0 0 0 0 0 0 0 0 0 0 0 0 0 0 0 0 0 0 0 0 0 0 0
0 0 0 0 0 0 0 0 0 0 0 0 0 0 0 0 0 0 0 0 0 0 0 0 0 0 0 0 0 0 0 0 0 0 0 0 0 0
0 0 0 0 0 0 0 0 0 0 0 0 0 0 0 0 0 0 0 0 0 0 0 0 0 0 0 0 0 0 0 0 0 0 0 0 0 0
0 0 0 0 0 0 0 0 0 0 0 0 0 0 0 0 0 0 0 0 0 0 0 0 0 0 0 0 0 0 0 0 0 0 0 0 0 0
0 0 0 0 0 0 0 0 0 0 0 0 0 0 0 0 0 0 0 0 0 0 0 0 0 0 0 0 0 0 0 0 0 0 0 0 0 0
Wind_Speed
3 3 3 2 2 2 3 4 5 5 4 3 2 3 4 4 6 4 4 8 9 8 8 7 7 6 6 6 6 6 5 5 4 3 3 2 1 1
3 4 4 3 2 2 2 2 2 4 4 3 3 4 5 5 6 4 4 9 9 8 8 7 6 6 6 6 5 5 5 4 4 3 2 1 1 1
5 5 5 4 3 2 3 3 3 4 6 5 4 5 5 5 4 3 4 4 5 8 8 7 7 6 6 6 6 6 5 5 5 4 4 3 2 3
7 6 6 5 5 4 4 5 4 4 7 8 5 4 4 4 4 4 4 5 5 8 9 8 7 7 7 7 7 7 6 5 5 5 4 4 4 4
7 7 7 6 6 5 5 5 4 5 5 7 5 3 3 3 4 3 3 3 5 8 9 9 9 9 8 8 8 7 7 6 6 6 6 5 5 5
7 8 8 7 6 5 6 6 6 6 6 6 6 4 3 3 3 3 2 2 3 5 7 8 9 10 10 9 9 9 8 8 7 7 7 6 6 6
8 8 9 11 11 7 6 5 5 5 4 5 5 4 3 3 3 2 3 3 2 2 3 4 4 4 5 7 9 10 10 9 9 9 8 7 7 7
7 6 8 9 11 12 13 10 7 5 4 3 3 4 4 3 2 2 2 2 1 1 1 2 4 4 5 5 9 12 12 11 10 10 9 8 8 8
7 7 8 10 9 7 9 10 10 10 8 5 5 4 4 2 2 2 2 2 1 1 1 1 2 3 4 6 12 13 12 12 11 10 10 9 9 9
8 8 8 8 9 7 7 8 8 8 7 6 5 5 4 3 2 1 1 1 1 1 1 1 1 2 2 3 10 12 12 12 12 11 11 11 11 11
8 9 8 8 12 10 7 7 6 5 7 8 7 5 5 4 3 2 2 1 0 0 0 0 1 1 1 3 6 12 12 12 12 12 12 12 11 10
5 7 11 10 11 11 6 6 5 4 3 3 2 1 2 2 1 1 1 1 1 1 1 1 0 0 1 2 3 5 6 10 12 12 12 12 11 6
4 4 5 8 9 9 7 5 3 3 1 1 1 1 1 1 1 1 0 1 1 1 1 1 1 1 1 1 1 2 4 5 5 7 12 14 13 9
5 4 3 5 6 6 4 5 6 5 1 0 1 1 1 1 1 1 0 0 1 2 2 1 1 1 1 2 2 2 3 4 4 5 5 9 11 13
3 2 2 2 3 3 3 5 4 2 1 2 1 1 1 1 1 1 2 2 3 4 4 3 3 2 2 2 3 3 3 3 3 3 4 4 5 5
2 1 3 4 3 3 3 2 1 1 2 1 0 0 0 0 1 1 1 1 2 3 3 3 4 3 3 4 3 3 3 3 3 3 3 3 4 5
5 3 2 2 2 1 1 0 0 1 1 1 1 1 1 1 1 1 1 2 2 2 2 3 4 5 5 4 4 4 4 3 3 3 3 3 4 5
5 3 2 1 1 1 1 0 1 2 1 2 1 1 1 1 1 1 1 2 2 2 2 2 2 2 2 4 5 4 3 3 3 3 3 3 5 5
3 2 1 1 1 1 1 2 2 1 1 1 1 1 1 1 2 2 2 2 2 2 3 3 2 2 3 4 4 4 3 3 3 3 4 4 4 4
3 2 1 1 1 1 1 2 1 1 1 1 2 2 2 2 2 2 2 2 2 3 4 3 2 2 3 3 3 4 7 6 4 4 4 3 4 5
1 0 0 1 1 1 1 1 1 1 1 1 2 2 2 2 3 3 2 3 3 4 4 4 4 4 4 3 4 5 5 9 9 6 4 4 4 4
1 1 1 0 1 1 1 1 1 1 1 2 1 1 2 2 3 4 4 3 3 4 4 4 4 3 3 4 5 6 6 5 8 13 12 9 4 4
1 1 2 2 2 2 1 0 1 1 1 1 2 2 2 2 3 3 4 4 4 4 5 4 4 3 4 4 5 5 7 6 4 4 6 12 16 17
Wind_Direction
43 47 57 62 86 101 127 145 144 143 134 135 118 104 106 105 122 118 122 138 138 136 137 140 140 138 138 139 138 134 129 125 123 120 113 99 78 43
42 50 51 56 76 95 121 119 121 131 129 134 127 140 133 132 143 145 153 157 159 158 157 156 158 159 158 155 152 153 157 160 164 169 183 199 270 316
40 53 56 57 71 81 93 97 97 108 121 115 111 130 131 139 147 166 166 167 169 173 172 171 174 175 175 174 180 185 186 187 192 204 217 234 264 284
43 47 51 59 67 76 84 92 96 101 123 126 128 135 142 157 161 174 173 173 168 173 177 179 181 185 190 194 197 198 199 203 210 220 230 242 256 269
51 53 53 57 61 69 81 87 94 105 110 122 127 131 143 167 167 181 176 163 172 170 178 189 196 200 203 205 204 204 206 211 218 226 234 242 253 263
57 59 56 56 60 68 82 88 98 103 113 122 132 143 153 171 164 170 167 173 172 169 181 188 200 205 209 210 210 210 211 215 222 229 235 241 248 257
63 66 67 69 65 66 80 89 100 107 117 127 136 141 147 155 168 185 165 170 188 166 169 188 181 194 206 216 218 217 216 218 223 230 235 240 245 251
57 67 77 70 70 73 75 76 84 101 115 119 128 133 138 143 155 148 132 143 168 173 173 217 177 190 195 197 207 209 214 218 222 227 233 238 243 247
48 46 57 55 51 63 77 77 70 66 71 90 94 101 106 98 99 98 101 109 140 199 175 240 202 197 203 196 192 200 209 215 220 225 231 237 242 247
51 53 58 48 38 42 66 72 68 57 59 71 74 74 75 58 54 84 129 134 194 229 159 215 228 212 188 170 195 201 210 216 221 226 232 237 241 246
57 49 49 48 32 40 59 69 76 79 77 81 85 91 91 81 62 42 30 61 139 253 202 204 265 242 204 192 203 208 215 220 225 230 235 238 242 245
81 69 54 46 36 37 49 59 60 51 71 91 91 117 148 146 145 105 25 26 51 18 340 11 325 326 287 241 191 195 223 234 236 239 241 243 241 236
75 70 52 38 36 33 41 53 46 357 350 110 140 153 145 148 175 176 100 71 57 347 322 12 339 316 290 290 262 210 206 217 217 235 238 241 237 220
56 61 62 37 26 13 19 8 356 342 312 52 93 91 99 103 109 117 153 199 218 231 251 252 275 287 298 297 279 257 241 230 215 217 220 225 232 232
44 41 17 351 336 315 304 323 328 319 11 45 52 52 75 106 192 229 242 248 261 257 238 217 228 262 266 267 270 264 266 258 233 225 218 212 217 214
5 321 280 282 280 295 295 285 277 37 30 13 21 5 14 273 263 239 240 243 259 274 254 228 227 236 256 266 267 272 263 254 249 242 237 238 232 222
334 295 253 232 224 218 226 214 140 106 36 337 352 332 316 291 287 281 277 285 274 268 268 258 240 227 231 240 261 267 265 263 253 245 239 255 263 252
342 306 315 345 359 22 22 16 61 69 25 346 342 341 338 334 316 308 294 290 294 288 278 268 272 279 273 264 237 246 264 267 266 262 255 258 268 266
300 297 330 355 358 5 12 31 46 60 28 320 320 324 324 326 319 308 305 307 309 305 298 292 289 292 300 300 290 240 248 274 279 275 264 256 260 262
253 278 317 347 355 19 21 25 18 7 354 348 342 344 344 328 314 309 309 310 309 303 295 289 282 276 277 284 287 272 240 237 253 261 268 273 270 269
278 273 327 10 13 17 356 321 305 309 324 320 302 304 311 312 311 309 300 294 283 279 284 280 268 256 252 263 270 270 257 231 227 232 247 263 275 279
310 340 9 291 259 248 235 244 265 270 263 264 275 289 295 294 296 297 297 295 285 280 283 278 270 259 255 262 269 272 272 263 242 242 243 234 230 245
243 272 262 250 238 246 251 2 337 306 303 307 314 305 295 288 284 283 284 284 286 291 293 291 290 283 277 273 274 275 278 276 269 254 250 245 239 244